Regional Weather Roundup
Issued by NWS Newport/Morehead, NC

Current Version | Previous Version | Graphics & Text | Print | Product List | Glossary On
Versions: 1 2 3 4 5 6 7 8 9 10 11 12 13 14 15 16 17 18 19 20 21 22 23 24 25 26 27 28 29 30 31 32 33 34 35 36 37 38 39 40 41 42 43 44 45 46 47 48 49 50
000 ASUS42 KMHX 280513 RWRMHX WEATHER ROUNDUP FOR EASTERN NORTH CAROLINA NATIONAL WEATHER SERVICE NEWPORT/MOREHEAD CITY NC 100 AM EDT WED JUN 28 2017 NOTE: "FAIR" INDICATES FEW OR NO CLOUDS BELOW 12,000 FEET WITH NO SIGNIFICANT WEATHER AND/OR OBSTRUCTIONS TO VISIBILITY NCZ015>017-031-032-045>047-102-103-280600- NORTH COAST CITY SKY/WX TMP DP RH WIND PRES REMARKS EDENTON CLEAR 67 60 80 CALM 30.08S ELIZABETH CITY CLEAR 66 64 93 W3 30.07S KITTY HAWK PTCLDY 69 65 89 CALM 30.06R MANTEO PTCLDY 67 65 93 CALM 30.07R $$ NCZ045>047-081-094-103-104-280600- CENTRAL COAST CITY SKY/WX TMP DP RH WIND PRES REMARKS FRISCO NOT AVBL $$ NCZ095-097-098-100-101-280600- SOUTHERN COAST CITY SKY/WX TMP DP RH WIND PRES REMARKS BEAUFORT MOCLDY 75 63 66 N12 30.07R CEDAR ISLAND NOT AVBL JACKSONVILLE NOT AVBL PINEY ISLAND CLOUDY N/A N/A N/A N8 30.07R WILMINGTON PTCLDY 73 67 81 N7 30.07S $$ NCZ011>013-027>030-043-044-078>080-089-090>093-098-280600- COASTAL PLAIN CITY SKY/WX TMP DP RH WIND PRES REMARKS AHOSKIE N/A 59 57 93 CALM 30.09R CLINTON CLEAR 65 62 88 CALM 30.10S ELIZABETHTOWN NOT AVBL GOLDSBORO CLEAR 65 63 93 CALM 30.08R GREENVILLE CLEAR 63 61 94 CALM 30.10R HAVELOCK CLOUDY 74 59 59 N10 30.09R KENANSVILLE CLEAR 64 61 88 CALM 30.10R KINSTON CLEAR 62 58 87 CALM 30.09S NEW BERN CLEAR 68 62 81 CALM 30.09S RICHLANDS MOCLDY 69 62 78 CALM 30.09S ROCKY MOUNT CLEAR 61 61 100 CALM 30.10R WASHINGTON N/A N/A N/A N/A CALM 30.09R WHITEVILLE CLEAR 72 61 67 CALM 30.08S $$ AMZ130-135-150-152-154-156-158-170-250-252-270-ANZ085-086-088-633-658-670-280600- MARINE OBSERVATIONS STATION/POSITION TIME TEMP WIND PRES WAVE SWELL AIR SEA DIR/SP/G HT/PER HT/PER (UTC) (F) (DEG/KT/KT) (MB) (FT/S) (FT/S) CHESAPEAKE LIGHT NOT AVBL 64 E VA BEACH 0450 74 74 290/ 6/ 8 1017.8 1/ 9 2/ 9 DUCK 0448 73 75 330/ 2/ 2 1017.6 2 E DUCK NOT AVBL OREGON INLET 0448 360/ 4/ 5 N/A 13E OREGON INLT 0448 75 N/A 2/ 7 2/ 7 HATTERAS CG 0448 78 80 340/ 15/ 18 1017.5 DIAMOND BUOY 0450 80 81 290/ 14/ 16 1017.0 2/ 6 2/ 7 CAPE LOOKOUT 0500 77 350/ 12/ 15 1017.9 BEAUFORT LAB 0448 76 79 360/ 13/ 17 1017.6 30 SE NEW RVR IN 0408 80 81 300/ 8/ 12 1017.8 30 SE NEW RVR IN 0443 81 N/A 2/ 6 27 SE WRIGHTSVLE 0408 80 81 270/ 8/ 10 1017.2 5 SE WRIGHTSVLE 0408 78 80 300/ 8/ 12 1017.8 225 S CAPE HAT 0350 78 80 200/ 4/ 6 1017.5 3/ 6 3/ 6 41 SE CHARLESTON 0450 80 81 50/ 2/ 4 1017.1 2/ 8 2/ 8 $$

USA.gov is the U.S. government's official web portal to all federal, state and local government web resources and services.